Wind_Speed
25 25 25 27 27 26 24 23 21 19 17 12 9 8 8 9 11 12 12 13 15 17 18 18 19 19 19 18 18 18 18 17 16 15 13 11 9 8 8 7 7 7 8 9 9 9 9 9 9 9 8 8 8 8 8 8 8 7 7 7 6 6 5 5 5 4 4 3 4 4 4 5 5 5 5 5 5 5 5 4 5 5 5 5 5
25 25 24 26 27 26 24 22 20 18 17 12 9 7 7 8 10 11 11 13 14 16 17 18 19 18 18 18 18 18 18 18 16 15 14 11 9 7 7 6 6 7 8 9 9 9 9 9 9 9 9 8 8 8 8 8 7 7 7 7 6 6 5 5 4 4 4 4 4 5 5 5 5 5 5 5 5 5 5 5 5 5 5 5 5
25 24 24 26 27 25 23 22 19 17 16 12 8 6 6 8 9 10 11 12 14 15 17 18 18 18 18 18 17 17 18 17 16 15 14 12 8 7 6 6 6 7 8 9 9 9 9 9 9 9 9 9 8 8 8 8 7 7 7 7 6 6 5 4 4 4 4 4 4 5 5 5 5 5 5 5 5 5 5 6 6 6 6 6 6
25 24 24 26 27 25 23 21 18 16 15 11 7 5 5 7 8 10 10 12 13 14 16 17 18 18 18 17 17 16 16 16 16 15 14 11 8 7 7 7 7 8 8 9 9 9 9 9 10 10 9 9 9 8 8 7 7 7 7 7 6 5 5 4 4 4 4 4 4 5 5 5 5 5 5 6 6 6 6 6 7 7 7 7 7
25 24 24 26 26 23 22 20 17 15 13 9 6 5 5 6 8 9 10 11 13 14 16 17 18 18 17 16 16 15 15 15 15 14 13 11 8 7 7 7 7 8 9 9 9 10 10 10 10 10 9 9 9 8 8 7 7 6 6 6 6 6 5 5 4 4 4 4 4 5 5 5 5 5 6 6 7 7 7 7 7 7 7 7 7
25 25 24 25 24 22 21 19 16 14 12 8 6 4 5 6 7 9 10 11 12 14 15 17 18 17 16 15 15 14 14 14 13 13 12 10 8 7 7 7 7 8 8 8 9 9 9 9 9 9 9 8 8 8 7 7 7 6 6 6 6 6 5 5 4 4 4 4 5 5 5 5 6 6 6 7 7 7 8 8 8 8 8 8 8
26 25 24 24 23 21 20 18 14 13 10 8 6 4 5 6 7 9 10 11 12 13 14 16 17 17 16 15 14 13 13 13 12 12 11 10 8 7 6 6 6 7 7 7 8 8 8 8 8 8 8 8 8 8 8 8 7 7 6 6 6 6 5 5 4 4 4 4 5 6 6 6 6 7 7 7 8 8 8 8 8 8 8 9 9
25 25 24 23 22 21 19 16 13 11 9 8 6 5 5 6 7 8 10 11 12 13 14 15 16 16 16 15 14 13 13 13 12 11 11 9 7 6 6 6 6 6 6 6 6 7 7 7 8 8 8 8 8 8 8 8 8 7 7 6 6 6 5 5 4 4 4 5 6 6 7 7 7 7 8 8 9 9 9 8 8 9 9 10 10
25 24 23 22 21 20 18 15 12 10 9 7 6 5 5 6 7 8 10 11 11 12 13 15 16 16 16 16 14 13 13 13 12 11 10 9 7 6 5 5 5 5 6 6 6 7 7 8 8 8 9 9 9 9 8 9 8 8 7 7 6 6 5 5 4 4 5 5 6 7 7 8 8 8 9 9 9 10 9 9 9 9 10 11 11
24 23 23 22 20 19 17 13 11 10 8 7 6 5 6 6 7 8 9 10 11 12 13 14 16 16 17 16 14 12 13 14 12 10 9 8 7 6 5 5 5 5 6 6 7 8 8 9 9 9 9 9 9 10 9 9 9 9 8 8 7 7 6 5 5 5 6 6 7 7 8 9 9 10 10 10 10 10 10 10 10 10 11 11 12
23 23 23 21 20 18 15 12 10 9 8 7 7 6 6 6 7 8 9 11 12 13 14 15 16 16 17 17 14 12 13 14 12 10 9 8 7 6 5 5 5 6 6 7 8 8 9 10 10 9 9 9 10 10 10 10 10 9 9 8 7 7 7 6 6 6 7 7 7 8 9 10 11 11 11 11 11 11 11 11 11 11 11 12 12
23 23 23 21 18 15 13 11 9 8 8 8 7 6 6 6 7 8 10 11 12 13 14 15 16 16 16 16 14 12 12 13 11 9 8 7 7 6 6 7 7 7 8 8 9 9 10 10 10 10 10 10 10 10 10 10 10 9 8 8 7 7 7 7 7 7 7 8 8 9 10 11 12 13 13 12 12 12 12 11 11 11 12 12 13
23 23 22 19 16 13 10 9 8 8 8 8 8 7 7 7 8 9 10 12 13 14 15 16 16 15 16 16 14 12 12 13 11 9 8 8 8 8 8 9 9 9 9 9 9 10 10 10 11 11 11 11 11 11 10 10 10 10 9 8 8 8 8 7 7 7 8 8 9 10 10 12 12 13 13 13 13 12 13 12 12 12 12 13 13
23 22 20 16 12 10 9 8 8 8 8 8 8 7 7 7 8 9 11 12 13 14 15 16 15 14 15 15 14 12 12 13 11 9 8 8 8 9 9 10 10 10 10 10 10 10 10 11 11 12 13 12 12 11 11 11 11 11 10 10 9 8 8 9 9 9 9 9 10 10 11 12 13 13 13 13 13 14 14 14 13 13 13 13 14
21 20 16 13 10 9 8 8 8 9 8 8 7 7 7 8 9 10 11 12 13 14 14 15 14 14 15 16 15 13 12 13 11 9 8 8 8 9 10 10 11 11 11 11 11 11 11 12 12 13 14 14 13 12 11 11 11 11 11 11 10 10 9 9 9 9 9 10 10 11 12 13 13 14 14 14 15 15 16 16 15 14 14 14 15
19 16 12 10 9 8 8 8 9 9 8 7 7 7 8 8 9 10 11 12 13 13 14 14 13 13 15 16 15 14 13 13 12 9 8 9 9 9 10 10 11 11 12 12 12 13 12 12 14 14 15 15 14 13 12 12 12 12 12 12 11 11 11 10 10 9 9 10 10 11 12 13 14 14 15 16 16 17 17 17 16 15 15 15 15
15 12 10 9 8 7 8 8 9 9 8 7 7 7 7 8 9 10 10 12 12 13 14 13 12 14 15 15 15 14 13 13 12 11 9 9 9 10 10 10 11 12 12 12 13 14 14 14 15 16 16 16 15 14 14 13 13 13 13 12 12 12 12 12 11 10 10 10 11 12 12 13 14 15 16 17 17 18 18 18 18 16 16 16 16
12 10 9 8 8 8 8 9 9 9 9 8 7 7 8 9 9 9 10 11 12 13 13 11 12 14 16 16 15 14 13 13 12 11 10 10 9 9 10 10 11 12 13 13 13 15 17 17 17 17 17 17 16 16 15 15 15 15 15 14 14 14 14 14 13 12 12 12 12 13 13 14 14 15 16 17 18 18 19 19 18 17 16 16 16
11 10 10 9 8 8 9 9 10 9 9 8 7 7 8 9 9 9 10 11 12 12 10 10 12 14 16 16 15 14 13 13 12 11 10 10 9 9 9 10 12 13 13 13 14 16 18 19 18 18 18 17 17 17 17 16 16 16 16 16 16 16 16 16 16 15 14 13 14 14 14 14 15 15 16 17 18 19 19 19 19 18 17 16 16
11 11 10 9 9 9 9 10 10 10 9 8 7 8 8 8 8 9 10 12 11 10 9 10 12 14 16 16 15 14 13 12 12 11 10 10 9 8 9 10 12 13 13 13 14 16 18 18 18 17 17 18 18 18 18 18 18 17 18 18 18 18 18 17 17 17 17 16 15 15 15 15 16 16 17 18 18 19 19 20 19 18 17 16 16
11 11 10 9 10 10 10 10 10 10 8 8 7 8 8 8 8 10 11 11 10 8 8 10 12 14 15 15 15 13 12 11 11 10 10 10 9 9 10 11 11 11 11 11 13 15 16 17 17 17 16 17 17 18 19 19 19 19 18 18 19 19 19 19 18 18 19 19 18 17 16 16 16 16 17 18 19 19 19 20 19 18 17 17 17
11 11 10 10 10 10 11 11 11 9 8 8 7 8 8 9 10 10 10 9 8 7 8 10 12 14 15 15 14 13 12 11 10 10 10 10 10 10 9 9 9 8 9 10 11 12 14 15 16 17 16 16 16 17 18 19 19 19 19 19 19 19 20 20 20 19 20 20 20 19 18 18 17 17 17 18 18 19 19 19 19 18 17 17 17
11 11 11 11 11 11 11 11 10 9 8 8 8 8 9 9 10 10 9 8 7 7 8 10 12 14 15 15 14 14 13 11 10 9 10 11 11 10 9 8 8 7 8 9 10 11 12 14 15 16 16 16 15 15 16 17 18 18 19 19 19 20 20 21 21 20 20 21 21 20 19 19 19 18 17 18 18 18 19 19 19 18 17 16 16
12 12 11 11 11 12 12 11 11 10 10 9 9 9 9 9 10 9 8 8 7 7 8 10 12 14 14 14 14 14 13 11 9 9 10 11 11 10 9 8 8 7 8 9 10 11 12 13 15 16 17 17 17 16 16 16 17 18 18 18 19 20 21 21 22 21 21 21 22 21 21 20 20 19 18 17 18 18 18 18 18 17 17 16 16
13 12 11 11 12 12 12 12 12 12 11 10 10 9 9 9 9 9 9 8 7 7 8 10 12 13 14 14 14 14 13 11 9 9 10 11 10 9 9 9 9 8 8 9 10 11 13 14 15 16 17 18 18 19 18 17 17 17 17 18 18 19 20 21 22 22 21 21 22 22 22 21 21 20 19 18 18 18 18 18 18 17 16 16 16
13 12 11 12 12 13 13 13 13 12 11 10 10 9 9 10 10 10 9 8 7 7 8 10 12 13 13 13 13 13 13 11 10 10 11 10 9 9 10 10 10 9 9 9 11 12 14 15 15 16 17 17 18 18 19 19 19 19 18 18 18 18 19 20 21 22 22 21 22 23 23 23 22 21 20 19 18 18 18 18 18 17 16 16 16
13 13 13 13 13 13 13 13 13 12 11 10 10 10 10 10 11 11 10 9 8 7 8 10 11 13 13 13 13 13 13 12 11 11 11 10 9 9 10 10 10 10 9 10 11 13 14 15 16 17 18 18 17 17 18 19 20 21 20 19 19 19 18 18 19 21 21 21 22 23 24 24 24 23 22 20 19 18 18 18 18 18 17 16 16
15 15 14 14 14 14 13 13 13 12 11 11 11 11 11 11 11 11 10 9 8 8 8 10 11 12 13 13 13 12 12 12 12 11 11 10 10 9 10 10 9 9 9 11 12 13 14 15 16 18 18 18 17 17 17 18 20 21 22 21 21 21 20 19 19 20 20 20 21 22 23 24 24 24 23 22 20 19 18 18 19 19 18 16 15
17 17 16 15 15 15 14 13 12 11 11 12 12 12 12 12 11 10 10 10 9 9 9 9 11 12 13 14 13 12 12 12 12 11 10 10 10 10 10 10 10 10 11 12 13 14 16 16 17 18 18 18 17 17 18 18 19 21 22 22 23 23 23 21 21 22 22 21 21 21 22 23 24 25 25 23 22 20 19 19 19 20 19 17 15
18 18 17 16 16 16 15 14 13 12 12 12 13 13 13 12 11 10 10 10 10 9 9 9 11 12 14 14 13 12 11 12 11 11 10 10 10 10 11 12 12 13 13 14 15 15 16 17 17 17 17 17 17 18 19 19 19 20 22 23 23 24 24 23 22 23 24 24 23 22 22 22 23 24 24 24 23 21 19 19 20 20 20 18 16
18 18 17 16 16 16 15 15 14 13 13 13 13 13 13 12 11 11 11 11 10 10 10 10 11 12 14 14 13 12 12 12 12 12 12 11 11 11 12 13 14 14 14 15 15 16 16 17 17 16 16 16 17 18 19 20 20 21 22 23 24 24 24 23 23 23 24 25 25 24 23 23 23 24 24 24 23 22 20 19 20 20 20 18 17
18 17 16 16 15 15 15 15 14 14 13 13 13 13 13 12 12 11 11 11 11 10 10 10 11 12 13 14 14 13 12 12 13 13 13 13 13 13 13 13 13 14 14 14 15 16 16 16 16 15 15 16 16 17 19 20 21 22 23 24 25 25 25 25 24 23 24 25 25 25 25 24 25 25 25 24 23 23 21 19 19 20 20 19 17
18 18 17 16 16 16 16 15 15 14 14 13 13 13 12 12 12 11 12 12 11 11 11 11 12 13 14 15 15 14 14 14 13 14 14 14 14 15 14 14 14 14 14 15 15 16 16 16 16 16 16 16 17 18 19 21 23 23 23 24 24 25 25 25 25 24 24 25 26 26 26 26 25 26 26 25 24 24 23 21 19 20 21 20 18
18 18 17 17 17 16 16 16 16 15 14 13 13 12 11 11 11 12 13 12 12 12 12 12 13 13 14 15 16 15 15 15 15 15 14 15 15 15 15 15 14 14 15 16 16 17 17 17 17 17 17 18 18 18 19 21 23 24 24 24 24 24 25 26 26 25 24 25 26 27 28 27 26 26 26 25 25 24 24 22 20 20 21 20 19
19 18 18 18 17 17 17 17 16 15 13 13 12 11 11 12 12 12 13 13 13 13 13 13 14 14 14 15 16 16 17 17 16 16 15 15 15 15 16 16 15 15 16 17 17 18 18 18 19 19 19 19 19 19 20 21 22 24 24 23 23 24 25 25 26 26 25 25 26 28 28 28 27 27 26 26 25 24 24 23 22 21 21 20 20
19 19 19 20 20 19 17 15 15 13 12 12 11 11 12 12 12 12 13 13 14 14 14 14 15 15 15 16 16 17 17 17 17 17 16 16 16 16 16 16 16 16 17 17 18 19 19 20 20 21 21 21 21 21 21 21 22 23 24 23 23 23 24 25 25 26 26 26 26 28 29 29 28 27 27 27 26 25 24 23 23 23 23 21 21
20 21 21 22 20 18 17 14 13 12 11 11 12 12 13 13 13 13 13 14 14 14 15 15 16 17 17 16 16 17 17 17 17 17 17 17 17 17 17 17 17 18 18 19 19 20 21 21 21 22 22 23 23 22 22 21 21 22 23 23 23 23 24 24 25 25 26 26 26 27 29 29 29 28 28 28 27 26 25 23 23 24 25 24 22
20 21 22 23 21 17 16 15 13 12 12 12 13 13 12 13 13 14 15 15 16 16 16 17 18 18 18 17 17 17 17 17 17 18 18 18 18 19 19 19 19 19 20 20 21 21 22 22 23 23 23 23 23 23 22 22 21 22 22 23 24 23 24 24 25 25 25 26 26 27 28 28 29 29 28 28 28 27 26 24 23 23 25 26 25
19 20 20 21 20 17 15 15 14 13 13 13 13 13 13 13 13 14 16 16 16 16 17 17 18 18 18 18 18 18 18 18 18 19 19 19 19 20 20 20 20 21 21 21 22 22 23 23 23 23 23 24 24 24 23 23 23 22 22 23 24 24 24 24 24 25 24 24 25 26 27 28 28 28 28 28 28 28 27 26 25 24 24 26 26
19 19 18 17 16 14 13 14 14 14 15 15 14 14 13 13 13 14 16 16 16 16 16 17 17 17 18 18 19 19 19 19 20 20 20 20 21 21 21 21 21 22 22 22 22 23 23 24 24 24 24 25 25 25 24 23 23 23 23 24 24 24 24 24 24 24 24 24 24 25 26 27 28 28 29 28 28 28 27 27 27 26 25 25 25
23 20 17 14 12 12 12 14 14 15 15 15 15 14 14 14 14 14 15 16 16 16 17 17 17 18 18 19 19 20 20 21 21 21 21 21 22 22 22 22 22 23 23 23 23 23 24 24 25 25 25 26 25 25 25 24 24 23 23 23 24 24 23 23 23 23 24 24 24 24 25 26 27 28 28 28 28 28 27 27 27 28 27 26 25
26 23 19 16 14 13 14 15 15 16 15 15 15 15 15 15 15 15 15 15 16 17 18 18 18 18 18 19 19 20 20 21 22 22 22 23 23 23 23 23 23 23 24 24 24 24 24 25 25 26 26 26 26 26 25 25 25 24 23 22 23 24 24 22 22 23 23 23 23 23 24 25 26 26 27 28 27 27 27 27 27 28 28 28 27
25 24 22 19 18 16 17 16 16 16 15 15 16 16 16 16 17 17 16 16 17 17 18 18 18 18 18 19 19 20 20 21 21 22 23 24 24 24 25 25 25 25 25 25 25 25 25 25 26 26 27 27 27 27 27 25 25 25 24 23 22 23 24 23 24 24 24 23 23 23 23 24 24 24 25 26 27 28 28 28 27 28 28 29 29
22 22 21 20 20 19 18 18 18 17 16 17 17 17 17 17 18 18 17 17 17 17 18 18 18 18 18 19 19 19 20 20 21 22 23 23 24 25 25 26 26 26 26 26 26 26 25 25 26 27 27 27 28 28 28 27 26 26 25 24 23 23 24 24 24 26 26 26 25 25 25 26 25 24 24 25 26 27 28 28 28 28 28 28 29
19 19 19 19 19 19 19 19 18 18 17 18 18 18 18 18 18 18 17 17 18 18 18 18 18 18 18 18 19 19 20 20 21 22 22 23 24 25 25 26 26 26 26 27 27 27 27 26 27 27 27 28 28 29 29 28 27 27 26 26 25 24 25 24 24 25 27 27 27 27 26 27 26 26 25 25 25 26 26 28 28 28 29 28 28
16 17 17 17 17 19 20 20 19 19 19 19 19 18 18 18 17 17 17 18 18 19 19 19 19 18 19 19 19 20 20 21 21 22 23 23 24 25 26 26 27 27 28 28 28 28 29 29 28 28 28 28 28 29 29 30 29 28 27 27 26 25 25 25 24 24 26 27 27 27 27 27 27 27 26 26 26 26 26 26 27 28 29 29 28
17 17 18 17 18 20 20 20 19 19 18 19 18 18 17 17 17 17 18 19 19 19 20 20 20 20 20 20 21 21 21 22 22 23 24 25 25 26 27 27 28 28 29 29 30 30 30 30 30 30 29 29 29 29 29 29 30 30 29 28 28 27 26 25 25 23 24 26 27 28 28 28 28 28 28 27 26 27 27 27 27 27 28 29 28
17 18 18 19 19 20 20 19 18 17 17 17 17 17 17 17 17 18 19 19 20 20 20 20 21 21 21 22 22 22 23 23 24 25 26 26 27 28 28 28 29 29 30 30 31 31 31 31 32 32 31 31 30 30 30 29 29 30 30 30 30 29 29 28 27 25 23 23 25 28 29 29 29 28 28 28 28 27 27 27 27 27 27 28 29
16 17 17 18 19 18 18 17 16 16 16 16 17 16 17 17 18 18 19 20 20 20 20 21 21 21 22 22 23 23 24 25 26 26 27 28 28 29 29 30 30 30 30 31 31 31 32 32 32 32 32 32 32 31 31 31 30 30 30 30 30 30 31 31 30 29 26 25 24 26 29 29 29 30 29 29 29 28 28 28 28 28 28 28 29
15 15 15 15 14 14 14 14 15 15 15 16 16 16 17 18 18 19 19 19 20 20 20 21 21 22 22 23 23 24 25 26 26 27 28 28 29 29 30 31 31 31 31 31 32 32 32 33 33 33 33 33 33 33 32 32 32 31 31 31 31 31 31 32 32 32 31 29 26 26 29 29 29 30 31 30 31 30 28 29 29 28 28 28 29
13 13 14 13 12 13 13 14 15 15 16 17 17 17 17 17 18 18 19 19 20 20 21 21 22 23 24 24 24 25 26 26 27 27 28 28 29 30 31 31 31 32 32 32 32 33 33 34 34 34 34 34 34 34 34 34 33 33 32 32 32 32 32 32 33 33 33 33 31 28 29 30 29 30 32 31 32 31 30 29 29 29 29 29 29
Wind_Direction
313 318 320 322 327 329 330 335 335 335 332 323 324 337 352 351 349 351 352 355 359 2 3 2 360 358 358 360 1 2 1 0 360 357 354 351 354 8 17 20 27 34 43 50 52 48 41 35 31 27 24 22 22 21 20 23 22 16 13 11 8 4 1 357 351 343 333 317 299 288 283 278 278 278 279 283 288 293 296 300 301 300 300 299 301
310 317 320 320 325 326 328 332 331 331 329 321 318 331 350 351 350 350 349 353 357 1 2 1 358 357 357 359 1 2 1 0 1 359 354 349 351 5 18 23 31 39 45 50 52 51 45 39 34 29 25 21 19 15 13 17 15 10 9 8 6 2 357 351 341 330 318 299 286 281 278 277 279 279 279 281 285 289 292 295 295 295 294 295 298
308 315 320 319 321 322 324 329 327 327 327 318 313 327 347 350 350 348 346 350 354 358 360 358 357 355 356 358 1 1 1 1 1 0 355 348 347 1 18 28 36 43 47 50 51 50 45 39 34 29 24 20 18 14 12 11 7 5 4 3 2 358 352 344 334 318 302 285 276 275 273 274 279 282 282 282 284 286 290 291 292 292 293 296 300
306 313 317 316 318 319 322 325 323 323 324 315 309 322 342 348 348 346 343 346 351 354 357 356 354 354 355 358 360 360 0 1 1 0 356 349 347 0 18 30 38 44 46 48 48 46 42 37 31 26 21 16 14 13 11 6 1 0 359 358 356 352 347 338 326 311 296 283 275 272 271 274 279 284 285 285 285 287 289 292 293 293 296 300 302
304 310 314 314 315 316 320 323 319 319 320 310 301 316 337 344 346 343 340 343 347 349 353 353 353 353 354 357 358 359 360 1 0 360 358 353 351 1 16 30 38 42 45 46 45 41 37 32 26 20 15 11 9 9 6 359 357 356 355 354 352 349 344 335 325 313 301 291 283 277 276 279 281 285 287 288 287 289 291 294 295 297 299 301 302
300 306 310 311 312 313 319 321 315 314 314 302 292 309 330 338 342 341 337 339 342 345 349 350 351 353 354 355 357 357 359 1 359 359 360 357 356 4 15 28 37 40 41 42 41 36 31 25 19 12 8 4 2 3 358 354 354 350 351 351 349 348 344 336 327 318 308 298 289 283 283 285 286 288 289 289 289 290 292 296 298 300 302 303 303
297 302 307 309 309 311 317 318 310 307 305 291 286 303 322 332 339 338 333 335 337 340 344 347 349 352 352 352 354 356 357 359 358 357 359 360 358 4 14 23 34 38 37 36 34 29 21 14 8 2 359 357 355 357 352 349 348 343 344 346 347 347 343 335 325 317 309 300 293 289 288 287 287 288 288 289 289 291 293 297 301 304 304 304 304
294 300 304 306 306 307 314 313 303 300 294 281 283 300 315 327 335 333 329 329 331 335 339 343 346 349 350 349 351 353 355 357 356 355 357 357 356 0 10 17 23 28 27 24 21 14 6 1 356 353 353 352 351 352 349 345 342 339 339 342 346 345 339 332 322 311 305 302 297 292 290 288 287 286 286 287 289 290 294 298 302 304 303 303 304
292 298 300 302 301 303 310 306 295 293 284 275 281 295 308 319 327 326 323 323 324 329 333 338 342 345 348 347 346 349 352 354 355 354 353 351 349 354 2 5 8 10 9 4 0 354 350 349 346 346 348 348 347 348 346 342 339 336 336 339 342 341 335 327 318 307 302 300 297 295 291 287 285 284 284 285 288 290 292 297 300 301 301 303 304
291 294 296 297 296 299 304 297 288 286 276 271 276 286 298 310 316 317 316 316 318 323 327 332 338 341 345 346 342 344 350 353 353 351 348 342 337 343 347 345 347 346 345 343 341 339 339 339 339 341 341 342 343 343 343 340 337 335 335 338 338 337 333 326 317 307 298 294 293 293 289 286 285 283 284 285 286 288 291 295 298 300 302 304 304
288 290 292 293 291 294 298 288 281 278 267 264 269 276 287 299 307 310 310 310 313 318 322 329 336 338 342 344 341 341 349 352 351 347 339 331 324 324 325 320 322 325 327 327 327 329 331 332 332 334 334 337 338 340 341 338 335 333 334 335 334 334 331 327 319 308 299 292 290 289 288 287 286 285 284 284 285 288 292 296 299 300 302 303 303
284 287 289 289 287 290 290 280 273 267 257 258 263 269 281 293 301 304 305 306 309 315 319 327 333 336 340 343 341 339 346 349 347 341 330 321 316 308 304 303 305 313 318 319 320 323 325 326 326 328 330 332 334 337 338 336 332 329 329 328 329 329 328 325 319 310 300 294 289 287 286 287 287 286 285 285 287 290 293 295 296 297 299 300 301
282 285 287 286 282 281 281 272 264 256 251 254 260 269 281 292 299 301 302 305 308 312 318 325 330 334 340 343 342 338 341 346 343 335 324 315 311 303 296 297 302 310 314 315 317 318 318 319 321 325 327 328 329 332 334 333 329 325 324 324 325 325 325 322 319 312 304 296 290 287 285 285 286 285 285 286 289 291 292 292 293 294 296 298 299
282 285 284 279 269 269 270 261 254 249 249 253 262 274 286 295 299 300 300 303 306 310 316 322 327 333 341 344 343 338 337 341 339 328 321 311 304 301 295 295 301 308 311 313 313 312 312 315 320 323 323 324 325 326 328 328 326 323 322 323 323 322 322 321 319 313 305 297 291 287 284 283 283 284 285 287 288 288 289 290 292 294 295 296 297
283 284 280 265 253 257 259 252 248 248 251 256 268 280 290 297 297 297 298 300 303 309 314 319 324 334 342 344 343 337 333 336 333 321 315 310 302 299 297 296 300 306 309 310 308 307 308 313 319 321 320 321 321 321 322 323 322 320 321 322 321 321 320 319 317 311 303 296 292 288 286 284 284 285 286 286 287 288 290 292 294 297 297 296 295
283 280 266 248 242 247 249 247 247 248 252 258 269 280 289 292 293 293 295 298 302 307 312 317 324 337 343 342 340 334 328 329 327 315 309 311 304 300 300 299 302 307 308 307 306 304 305 311 315 317 318 318 318 317 317 317 317 317 319 319 318 316 316 315 311 307 303 298 295 292 290 289 289 289 289 289 289 290 292 294 296 298 298 296 293
281 268 248 237 234 237 242 243 244 245 248 253 263 273 281 285 288 290 292 296 300 306 311 317 329 338 340 339 336 330 324 322 322 312 306 309 306 303 301 302 305 308 307 306 305 304 305 309 313 315 316 316 316 316 315 314 313 313 314 314 312 310 309 308 306 305 304 303 301 300 298 297 296 295 294 293 293 293 294 295 297 298 298 295 292
269 246 233 230 227 231 236 239 239 240 243 248 255 265 275 281 285 287 289 292 297 304 311 321 334 337 336 334 332 328 322 319 318 311 305 308 308 303 301 304 308 309 307 306 305 305 307 311 314 314 314 314 314 315 315 314 313 311 311 311 310 308 305 303 303 304 306 307 306 305 305 304 303 302 299 297 296 296 296 297 298 299 298 295 292
247 230 227 226 226 230 232 235 237 237 242 246 254 266 273 278 282 284 285 288 296 305 312 326 335 334 331 331 330 328 324 319 315 309 305 308 309 303 301 305 309 310 308 306 306 307 310 314 316 316 316 316 315 315 315 314 314 312 310 310 309 308 305 303 302 304 305 306 306 307 307 308 308 307 304 301 300 299 299 299 300 301 300 296 293
233 225 225 226 228 229 232 236 238 239 242 248 257 265 269 273 278 279 281 289 299 304 312 327 331 330 329 330 330 329 327 319 312 308 308 311 311 304 300 303 307 308 307 307 308 310 313 316 317 318 320 320 319 318 316 315 315 313 312 309 307 307 307 305 303 302 301 301 303 305 306 307 308 309 307 305 304 303 303 303 303 304 303 299 296
227 224 226 229 230 230 233 238 240 241 244 250 255 259 265 270 272 274 281 291 295 298 313 326 328 328 329 330 330 330 328 321 314 312 313 314 312 305 301 303 304 306 307 309 311 312 315 316 317 319 322 323 323 321 319 317 316 315 313 309 306 305 306 305 304 302 301 301 302 304 305 305 306 307 308 307 306 306 306 307 307 306 305 303 299
226 226 228 230 231 231 235 238 240 241 242 244 247 253 262 266 269 274 281 286 287 297 316 324 327 330 331 331 332 331 328 322 316 314 314 314 311 306 305 304 302 304 306 310 312 312 313 314 316 319 322 323 323 322 321 320 319 316 313 309 305 304 304 304 303 303 302 302 303 304 305 304 304 305 307 308 308 308 309 309 310 310 307 304 301
226 227 229 231 232 233 235 238 239 237 235 238 245 253 259 265 268 272 276 279 283 298 315 322 328 332 333 334 334 333 330 325 318 316 316 315 312 307 306 305 303 305 308 310 310 308 308 311 314 317 320 321 321 322 323 322 319 317 313 309 306 303 302 301 301 302 303 304 304 305 305 305 304 304 306 308 309 310 310 310 312 311 308 304 302
227 228 230 233 235 235 235 235 234 232 233 239 246 252 257 262 264 266 268 271 277 294 310 321 330 333 335 336 336 335 332 330 324 320 320 318 314 309 307 309 308 308 310 310 308 307 307 310 314 319 322 322 321 321 322 320 318 316 313 310 307 303 301 301 301 302 304 304 304 304 305 305 305 304 304 305 307 308 309 309 310 310 307 303 301
229 231 232 235 236 235 234 232 232 232 235 239 245 250 254 258 259 260 262 263 269 289 308 321 330 335 336 336 336 335 333 332 329 324 324 323 317 312 312 314 313 309 309 311 311 312 312 313 317 323 326 324 322 321 321 319 317 314 311 310 308 305 302 301 302 303 305 304 303 302 302 302 303 303 303 304 305 306 307 307 308 308 306 303 300
231 231 229 231 233 232 232 232 232 233 235 239 242 245 249 252 254 254 256 258 264 284 305 319 330 336 337 336 334 334 334 331 329 327 327 326 321 317 316 316 315 310 308 312 316 317 316 315 318 323 326 325 321 320 320 319 316 313 311 312 311 308 305 302 302 302 304 303 302 300 300 301 302 303 303 303 304 306 306 306 305 305 304 301 298
230 227 226 227 227 227 228 230 232 234 236 239 240 241 243 246 249 251 254 257 263 280 301 317 329 335 337 335 333 333 336 333 329 327 327 325 320 320 320 320 316 311 307 309 313 316 316 317 319 321 322 321 318 317 318 318 315 313 312 312 311 308 306 304 301 301 301 300 299 299 299 300 302 302 301 301 301 302 303 303 302 301 300 298 296
226 225 226 224 222 223 225 228 232 236 239 240 239 239 241 243 247 251 254 258 264 277 295 314 326 333 335 334 331 332 335 336 333 330 328 323 320 321 324 326 323 317 311 307 308 311 315 318 317 315 315 315 314 313 314 315 314 313 311 310 308 305 304 302 301 300 300 299 298 297 297 299 300 300 300 299 298 299 300 299 298 296 295 294 294
224 224 224 221 220 221 223 227 231 236 239 240 240 240 242 244 248 251 253 256 262 274 291 309 321 328 332 332 330 329 331 333 335 335 332 325 319 317 317 321 322 320 316 311 311 313 316 316 313 310 309 309 309 310 312 312 312 312 311 309 306 304 303 303 302 301 300 299 298 296 296 297 298 298 298 298 296 296 296 295 294 293 292 293 293
222 222 221 220 220 221 224 227 230 234 237 239 241 243 244 246 248 250 251 252 259 270 285 302 315 322 327 330 329 326 327 329 332 335 333 326 316 309 307 309 312 313 313 312 312 313 314 313 311 310 309 309 308 308 309 309 309 310 311 309 306 305 304 304 303 301 300 300 300 299 298 297 297 297 297 297 296 293 292 292 290 290 291 292 292
221 220 220 220 221 224 225 227 229 232 236 239 242 244 245 247 247 248 248 250 257 266 280 296 307 314 319 325 326 323 323 325 328 331 330 326 318 309 305 304 305 306 308 310 311 311 313 314 314 315 315 312 309 307 307 306 306 308 309 308 306 305 304 304 302 300 298 298 298 298 297 298 298 297 298 298 296 293 291 289 287 288 290 292 292
221 222 221 222 224 226 226 226 228 231 234 239 242 244 246 247 248 248 247 249 255 263 275 289 298 304 312 319 323 323 323 322 324 327 326 325 320 314 310 306 305 305 307 309 311 312 313 314 316 317 315 312 308 305 304 304 304 305 305 305 305 305 305 305 304 301 298 297 297 296 295 295 295 296 298 299 298 294 290 286 283 284 287 291 293
223 224 223 224 225 226 226 226 227 229 231 236 240 245 248 249 249 247 245 247 253 260 268 280 291 297 306 314 320 323 323 321 320 322 322 322 321 318 315 312 310 308 308 310 311 313 313 312 312 312 310 308 306 304 303 303 302 303 303 303 303 303 305 306 305 303 300 298 296 295 293 293 293 294 295 298 299 296 290 284 280 280 282 286 290
223 223 222 222 223 224 225 225 225 227 229 234 240 245 251 252 251 247 244 246 251 257 264 275 287 294 301 309 316 320 320 319 318 318 317 318 318 318 317 315 313 311 310 311 312 312 311 309 308 307 307 307 306 304 303 303 302 303 303 302 302 301 302 303 303 302 301 299 296 294 293 293 293 292 293 294 296 298 294 286 280 278 278 281 286
219 218 217 217 217 218 220 222 223 226 228 233 240 246 252 252 251 249 246 248 252 258 265 277 287 292 297 302 309 314 316 317 316 315 313 314 315 315 316 315 315 313 312 312 312 311 308 306 304 305 305 305 305 305 305 304 303 303 303 302 301 301 301 300 300 299 299 298 297 295 294 294 294 293 293 292 293 296 297 290 280 276 276 278 283
213 211 213 213 213 214 216 217 218 222 226 233 241 246 251 252 252 252 250 252 256 262 271 280 286 289 290 294 300 307 310 312 313 313 313 313 314 313 313 313 313 312 310 309 308 307 305 302 302 302 302 303 304 305 305 306 305 304 303 302 301 300 299 299 300 299 299 298 297 297 296 296 295 294 293 292 291 293 296 295 284 274 274 278 281
210 211 213 214 215 214 212 214 215 220 228 234 243 247 251 252 252 254 255 257 261 266 274 280 283 284 285 288 293 299 303 306 309 311 313 313 313 312 311 310 309 308 307 306 305 304 302 301 300 300 300 301 303 304 305 306 305 304 302 302 301 301 300 300 300 300 299 299 299 297 297 296 296 294 293 292 291 290 293 297 291 277 271 274 280
209 214 216 216 217 214 209 210 214 222 230 237 246 251 252 252 253 256 258 260 262 267 273 277 281 282 281 282 286 292 297 301 305 308 311 311 311 310 308 308 307 307 306 306 306 304 302 301 300 299 300 301 303 304 305 306 306 305 303 303 302 302 302 302 301 300 300 299 299 297 296 295 294 294 294 293 292 290 289 292 293 285 273 270 275
207 212 216 216 214 210 207 211 218 226 233 239 248 255 257 258 260 262 261 261 262 266 271 277 281 280 278 279 282 287 293 298 301 304 306 307 307 306 306 306 305 306 306 306 306 305 303 302 301 301 300 301 302 303 304 307 307 307 306 304 304 304 304 304 303 304 303 302 300 299 297 295 294 294 294 294 293 290 288 287 289 288 280 272 271
213 214 217 216 213 208 210 218 225 233 238 242 249 256 260 263 267 267 263 261 262 266 272 277 279 278 277 279 282 286 290 294 297 299 301 303 303 303 303 303 304 305 305 305 304 303 302 301 301 300 300 299 300 301 303 306 307 307 306 304 304 305 305 306 307 308 309 308 306 303 301 299 297 296 295 294 293 291 288 286 286 286 284 279 274
220 221 218 219 221 219 223 229 234 239 243 246 250 254 258 262 266 268 265 262 262 266 273 278 280 279 278 279 282 286 289 292 293 295 297 299 300 299 300 300 301 302 303 303 303 302 301 301 300 300 299 299 299 299 301 304 305 305 304 303 303 303 303 305 308 309 311 312 312 309 305 302 300 298 297 295 293 290 288 286 286 285 284 282 277
220 225 229 233 234 233 236 239 242 245 247 248 251 253 255 258 262 267 268 265 264 268 274 280 282 281 282 282 284 287 290 292 293 295 296 298 298 299 300 300 300 301 301 302 302 302 302 302 302 301 300 300 300 299 299 301 302 302 302 302 302 303 303 305 307 308 310 312 312 310 308 305 302 301 299 298 295 290 287 286 285 285 283 280 277
220 225 233 236 236 238 241 244 245 246 247 248 250 252 253 256 261 265 268 266 266 270 276 281 282 283 285 286 287 289 291 293 294 296 297 298 299 299 300 300 300 300 300 301 301 302 303 303 303 302 301 301 300 298 298 298 299 300 302 301 301 302 302 306 307 307 308 309 309 310 309 308 306 304 301 299 297 294 290 286 284 283 282 280 276
217 220 227 230 233 238 241 244 245 246 247 250 252 253 256 259 262 265 266 266 268 272 277 280 282 284 286 288 289 291 292 295 296 298 299 299 300 300 300 300 299 299 299 299 300 301 302 302 301 301 300 299 298 297 297 297 298 299 301 302 302 302 301 304 306 307 308 309 310 310 310 310 311 311 308 302 298 295 293 290 286 282 281 281 277
211 215 222 225 231 237 240 243 244 246 249 251 255 257 260 262 264 266 266 269 272 276 279 281 284 286 287 289 290 292 294 297 299 300 301 301 301 300 300 300 299 299 299 299 299 300 300 300 300 300 299 298 297 296 296 296 296 297 299 300 300 300 300 301 304 306 307 308 308 308 308 308 309 311 312 308 303 298 295 293 290 285 281 281 278
213 216 223 224 230 235 238 241 242 246 249 253 257 259 262 263 264 266 267 270 274 278 282 285 289 290 291 292 292 293 295 298 300 302 304 304 303 303 302 302 302 301 300 300 299 299 299 299 299 298 298 297 296 295 295 295 296 296 296 297 297 297 297 298 300 301 304 305 306 306 306 306 307 308 309 310 308 304 299 295 292 289 283 280 278
218 222 227 228 231 234 237 241 243 247 251 253 256 256 259 260 262 265 268 271 275 280 285 288 291 291 293 294 295 296 297 300 302 304 305 306 306 306 306 305 304 303 302 301 301 300 299 299 298 298 297 296 295 293 292 293 293 294 295 295 296 296 296 296 297 298 300 303 305 306 306 307 307 307 307 308 309 308 304 299 295 291 286 282 279
220 223 227 230 232 234 237 240 243 246 248 250 251 253 256 260 263 267 270 273 276 281 285 287 289 290 292 294 297 300 302 303 305 306 307 307 308 307 307 306 305 304 303 302 301 300 299 298 297 297 296 296 295 293 292 291 290 291 292 294 295 296 296 296 296 296 297 299 302 303 304 305 305 305 306 307 307 308 307 303 299 295 290 284 280
216 218 221 225 228 230 231 234 237 240 242 246 249 253 258 262 265 269 271 275 278 281 284 286 288 290 292 295 298 301 302 303 305 306 307 307 308 308 307 307 306 304 303 302 301 300 299 298 297 296 296 295 294 294 293 292 291 290 290 291 292 293 295 296 296 296 296 295 296 299 299 301 304 305 306 306 306 306 306 305 301 297 292 286 280
209 212 214 218 222 225 225 228 232 235 240 246 252 257 261 265 268 270 273 277 279 282 284 287 290 292 293 295 298 300 301 302 304 305 306 306 307 307 307 306 305 305 303 302 301 300 299 298 298 297 296 295 294 294 293 292 291 290 290 290 290 291 292 294 295 296 296 296 295 296 296 298 301 302 303 304 305 304 304 303 302 299 294 289 283
206 210 216 219 224 229 230 234 237 241 247 252 257 261 263 267 271 274 277 280 282 284 285 289 291 293 294 296 298 299 300 302 303 305 305 306 306 306 306 305 304 304 303 302 301 300 299 298 298 297 296 296 295 294 293 292 291 290 289 289 290 290 291 292 293 294 295 295 295 296 295 296 298 299 300 302 302 303 303 301 300 300 297 293 287
Height
5895 5895 5894 5893 5892 5891 5890 5890 5890 5889 5888 5887 5886 5885 5885 5884 5884 5883 5882 5882 5881 5880 5879 5878 5877 5875 5874 5872 5871 5869 5868 5867 5866 5865 5865 5864 5863 5861 5860 5859 5858 5857 5856 5856 5855 5855 5854 5854 5854 5853 5853 5852 5852 5851 5851 5850 5850 5849 5849 5848 5848 5847 5847 5846 5846 5845 5845 5844 5844 5844 5844 5843 5843 5843 5842 5842 5842 5841 5841 5841 5841 5840 5840 5840 5840
5894 5894 5893 5892 5891 5891 5890 5890 5889 5888 5888 5887 5886 5885 5885 5884 5884 5883 5883 5882 5881 5880 5879 5878 5877 5876 5874 5873 5871 5869 5868 5867 5866 5865 5865 5864 5863 5861 5860 5860 5859 5858 5857 5856 5855 5855 5855 5854 5854 5854 5853 5853 5852 5851 5851 5850 5850 5849 5848 5848 5847 5847 5846 5846 5846 5845 5845 5844 5844 5844 5843 5843 5843 5842 5842 5842 5841 5841 5841 5841 5840 5840 5840 5840 5839
5894 5893 5893 5892 5891 5891 5890 5889 5888 5888 5887 5887 5886 5885 5885 5884 5884 5883 5883 5882 5881 5880 5879 5878 5877 5876 5874 5873 5871 5870 5868 5867 5866 5865 5864 5864 5863 5861 5860 5860 5859 5858 5857 5856 5855 5855 5854 5854 5854 5853 5853 5852 5852 5851 5851 5850 5849 5849 5848 5847 5847 5846 5846 5846 5845 5845 5845 5844 5844 5843 5843 5843 5842 5842 5842 5841 5841 5841 5841 5840 5840 5840 5840 5840 5839
5893 5893 5893 5892 5891 5890 5889 5889 5888 5887 5887 5886 5886 5885 5885 5884 5884 5883 5883 5882 5881 5880 5879 5878 5877 5875 5874 5873 5871 5870 5868 5867 5866 5865 5864 5864 5863 5861 5861 5860 5859 5858 5857 5856 5856 5855 5854 5854 5853 5853 5853 5852 5851 5851 5850 5850 5849 5848 5848 5847 5847 5846 5846 5845 5845 5844 5844 5844 5843 5843 5843 5842 5842 5842 5841 5841 5841 5841 5840 5840 5840 5840 5840 5839 5839
5892 5892 5892 5891 5890 5890 5889 5888 5887 5887 5886 5886 5885 5885 5884 5884 5884 5883 5883 5882 5881 5880 5879 5878 5877 5875 5874 5873 5871 5870 5868 5867 5866 5865 5865 5864 5863 5862 5861 5860 5859 5858 5857 5856 5856 5855 5855 5854 5853 5853 5852 5852 5851 5850 5850 5849 5848 5848 5847 5847 5846 5846 5845 5845 5844 5844 5844 5843 5843 5843 5842 5842 5842 5841 5841 5841 5841 5840 5840 5840 5840 5840 5839 5839 5839
5891 5891 5891 5891 5890 5889 5889 5887 5887 5886 5885 5885 5885 5884 5884 5883 5883 5883 5882 5882 5881 5880 5879 5878 5877 5875 5874 5873 5871 5870 5868 5867 5866 5865 5864 5864 5863 5862 5861 5860 5859 5858 5857 5857 5856 5855 5855 5854 5853 5853 5852 5851 5851 5850 5850 5849 5848 5847 5847 5846 5845 5845 5845 5844 5844 5843 5843 5843 5843 5842 5842 5842 5841 5841 5841 5841 5840 5840 5840 5840 5840 5840 5839 5839 5838
5890 5890 5890 5890 5889 5889 5888 5887 5886 5885 5885 5885 5884 5884 5883 5883 5883 5882 5882 5881 5881 5880 5879 5878 5876 5875 5874 5872 5871 5870 5868 5867 5866 5865 5864 5864 5863 5862 5861 5860 5859 5859 5857 5857 5856 5855 5854 5854 5853 5852 5852 5851 5851 5850 5849 5849 5848 5847 5846 5846 5845 5845 5844 5844 5843 5843 5843 5842 5842 5842 5842 5841 5841 5841 5841 5840 5840 5840 5840 5839 5839 5839 5839 5838 5838
5889 5889 5889 5889 5888 5888 5887 5886 5885 5885 5884 5884 5884 5884 5883 5882 5882 5882 5881 5881 5880 5879 5878 5877 5876 5875 5874 5872 5871 5869 5868 5867 5866 5865 5864 5864 5863 5862 5861 5860 5859 5858 5857 5857 5856 5855 5854 5853 5853 5852 5852 5851 5851 5850 5850 5849 5848 5847 5846 5845 5845 5844 5844 5843 5843 5842 5842 5842 5841 5841 5841 5841 5840 5840 5840 5840 5840 5839 5839 5839 5839 5838 5838 5838 5837
5888 5888 5888 5888 5887 5886 5886 5885 5885 5884 5883 5883 5883 5883 5882 5882 5881 5881 5881 5880 5880 5879 5878 5877 5876 5875 5873 5872 5871 5869 5868 5867 5865 5865 5864 5863 5862 5862 5861 5860 5859 5858 5857 5857 5856 5855 5854 5853 5853 5852 5852 5851 5850 5850 5849 5849 5848 5847 5846 5845 5845 5844 5843 5843 5842 5842 5841 5841 5841 5841 5840 5840 5840 5840 5839 5839 5839 5839 5838 5838 5838 5838 5837 5837 5837
5887 5887 5886 5886 5885 5885 5885 5884 5884 5883 5883 5883 5883 5882 5881 5881 5881 5880 5880 5880 5879 5878 5877 5876 5875 5874 5873 5872 5870 5869 5868 5866 5865 5865 5864 5863 5862 5861 5861 5860 5859 5858 5857 5856 5856 5855 5854 5854 5853 5852 5851 5851 5850 5850 5849 5848 5848 5847 5846 5845 5845 5844 5843 5843 5842 5842 5841 5841 5841 5840 5840 5840 5840 5839 5839 5839 5838 5838 5838 5837 5837 5837 5837 5836 5836
5885 5885 5885 5884 5884 5884 5884 5883 5882 5882 5882 5882 5882 5881 5881 5880 5880 5879 5879 5879 5878 5878 5877 5876 5875 5874 5872 5871 5870 5869 5867 5866 5865 5864 5864 5863 5862 5861 5860 5860 5859 5858 5857 5856 5856 5855 5854 5853 5852 5852 5851 5850 5850 5849 5849 5848 5848 5847 5846 5845 5845 5844 5843 5843 5842 5842 5841 5841 5840 5840 5840 5840 5839 5839 5838 5838 5838 5837 5837 5837 5836 5836 5836 5835 5835
5884 5884 5883 5883 5882 5882 5882 5881 5881 5881 5881 5881 5881 5880 5880 5879 5879 5878 5878 5878 5878 5877 5876 5875 5874 5873 5872 5871 5869 5868 5867 5866 5865 5864 5863 5863 5861 5860 5860 5859 5858 5858 5857 5856 5856 5855 5854 5853 5852 5851 5851 5850 5850 5849 5849 5848 5847 5847 5846 5845 5845 5844 5843 5842 5842 5841 5841 5841 5840 5840 5840 5839 5839 5838 5838 5837 5837 5837 5836 5836 5835 5835 5835 5834 5834
5882 5882 5881 5881 5881 5881 5880 5880 5880 5880 5880 5879 5879 5879 5879 5878 5878 5878 5877 5877 5877 5876 5875 5874 5873 5872 5871 5870 5869 5868 5867 5866 5865 5864 5863 5862 5861 5860 5859 5859 5858 5857 5857 5856 5855 5855 5854 5853 5852 5851 5850 5850 5849 5849 5848 5848 5847 5846 5846 5845 5844 5844 5843 5842 5842 5841 5841 5840 5840 5840 5839 5839 5838 5838 5837 5837 5836 5836 5835 5835 5834 5834 5833 5833 5833
5880 5880 5879 5879 5879 5879 5879 5878 5878 5878 5878 5878 5878 5878 5878 5877 5877 5877 5876 5876 5876 5875 5874 5873 5872 5871 5871 5870 5868 5867 5867 5866 5865 5864 5863 5862 5861 5860 5859 5859 5858 5857 5856 5856 5855 5854 5853 5852 5852 5851 5850 5850 5849 5849 5848 5847 5847 5846 5846 5845 5844 5844 5843 5842 5842 5841 5841 5840 5840 5839 5839 5838 5837 5837 5836 5836 5835 5835 5834 5833 5833 5833 5832 5832 5832
5878 5878 5877 5877 5877 5877 5877 5877 5877 5878 5878 5878 5877 5877 5877 5876 5876 5876 5876 5875 5875 5874 5873 5872 5872 5871 5870 5869 5868 5867 5866 5866 5865 5864 5863 5862 5861 5860 5859 5858 5858 5857 5856 5855 5854 5854 5853 5853 5852 5851 5850 5850 5849 5848 5848 5847 5847 5846 5846 5845 5845 5844 5843 5843 5842 5841 5841 5840 5839 5839 5838 5837 5837 5836 5836 5835 5835 5834 5833 5832 5832 5831 5831 5831 5831
5876 5875 5875 5876 5876 5876 5876 5876 5877 5877 5877 5877 5876 5876 5876 5875 5875 5875 5875 5875 5874 5873 5873 5872 5871 5871 5870 5868 5867 5866 5866 5865 5864 5863 5862 5862 5861 5860 5859 5859 5858 5857 5856 5855 5854 5853 5853 5853 5852 5851 5850 5850 5849 5848 5848 5847 5846 5846 5846 5845 5845 5844 5843 5842 5841 5841 5840 5839 5839 5838 5837 5837 5836 5836 5835 5834 5834 5833 5832 5832 5831 5831 5830 5830 5829
5874 5874 5874 5875 5874 5874 5875 5875 5876 5876 5876 5875 5875 5875 5875 5874 5874 5874 5874 5874 5873 5873 5872 5871 5871 5870 5869 5868 5867 5866 5865 5864 5863 5863 5862 5861 5861 5860 5859 5859 5858 5857 5856 5855 5854 5853 5852 5853 5852 5851 5850 5849 5849 5848 5847 5847 5846 5846 5845 5845 5844 5843 5842 5841 5841 5840 5839 5838 5838 5837 5836 5836 5835 5835 5834 5834 5833 5832 5832 5831 5831 5830 5829 5829 5828
5873 5873 5873 5874 5873 5874 5874 5874 5875 5875 5875 5874 5874 5874 5874 5873 5874 5874 5874 5873 5872 5872 5871 5871 5870 5869 5868 5867 5866 5865 5864 5863 5863 5862 5862 5861 5860 5860 5859 5859 5858 5857 5856 5855 5854 5853 5852 5852 5852 5851 5850 5849 5848 5847 5847 5846 5846 5845 5845 5844 5843 5842 5842 5841 5840 5839 5839 5838 5837 5836 5836 5835 5834 5834 5833 5833 5832 5831 5831 5830 5830 5829 5829 5828 5827
5872 5872 5873 5873 5873 5873 5873 5873 5873 5874 5873 5873 5873 5873 5873 5873 5873 5873 5873 5872 5872 5871 5871 5871 5870 5869 5867 5866 5865 5864 5863 5862 5862 5861 5861 5861 5860 5860 5859 5859 5858 5857 5856 5855 5854 5853 5852 5851 5851 5850 5849 5849 5848 5847 5846 5846 5845 5845 5844 5843 5843 5842 5841 5840 5839 5839 5838 5837 5836 5835 5835 5834 5833 5833 5832 5831 5831 5830 5830 5829 5829 5829 5828 5827 5826
5870 5871 5872 5872 5872 5872 5872 5872 5872 5873 5873 5873 5872 5872 5872 5872 5872 5872 5872 5872 5871 5871 5871 5870 5869 5868 5867 5865 5864 5863 5862 5861 5861 5860 5860 5860 5860 5859 5859 5859 5858 5857 5856 5855 5854 5853 5852 5851 5850 5850 5849 5848 5847 5846 5845 5845 5844 5844 5843 5842 5842 5841 5840 5839 5839 5838 5837 5836 5835 5834 5834 5833 5832 5832 5831 5830 5830 5829 5829 5828 5828 5828 5827 5827 5826
5869 5870 5871 5871 5871 5871 5871 5871 5872 5872 5872 5872 5872 5871 5871 5871 5871 5871 5871 5871 5871 5871 5870 5870 5869 5867 5866 5864 5863 5862 5861 5861 5860 5859 5860 5859 5859 5859 5858 5858 5857 5856 5855 5855 5854 5853 5852 5850 5849 5849 5849 5848 5847 5845 5845 5844 5844 5843 5843 5842 5841 5840 5839 5839 5838 5837 5836 5835 5835 5834 5833 5832 5831 5831 5830 5829 5829 5828 5828 5827 5827 5827 5827 5826 5825
5868 5869 5870 5870 5870 5870 5870 5870 5871 5871 5871 5871 5871 5870 5870 5870 5871 5871 5871 5871 5870 5870 5870 5869 5868 5867 5865 5864 5862 5861 5861 5860 5859 5859 5858 5858 5858 5858 5857 5856 5856 5855 5854 5854 5854 5853 5851 5850 5848 5848 5847 5847 5846 5845 5844 5844 5843 5842 5842 5841 5840 5839 5839 5838 5837 5836 5835 5834 5834 5833 5832 5831 5830 5829 5829 5828 5828 5827 5827 5826 5826 5826 5825 5825 5824
5867 5868 5868 5868 5869 5869 5869 5870 5870 5870 5870 5870 5870 5869 5870 5870 5870 5870 5870 5870 5870 5869 5869 5868 5867 5866 5864 5863 5861 5860 5860 5859 5858 5858 5858 5857 5857 5856 5856 5855 5855 5854 5854 5853 5853 5852 5851 5849 5848 5847 5846 5845 5845 5845 5844 5843 5842 5842 5841 5840 5839 5838 5838 5837 5835 5835 5834 5834 5833 5832 5831 5831 5830 5829 5828 5827 5827 5826 5825 5825 5824 5824 5824 5824 5823
5866 5866 5867 5867 5868 5868 5868 5868 5868 5868 5868 5868 5868 5869 5869 5869 5869 5869 5869 5869 5869 5869 5868 5867 5866 5865 5864 5862 5861 5860 5859 5858 5858 5857 5857 5856 5856 5855 5855 5854 5854 5853 5853 5852 5852 5851 5850 5849 5848 5846 5845 5844 5843 5843 5843 5842 5841 5841 5840 5839 5838 5837 5836 5835 5834 5834 5833 5833 5832 5831 5830 5830 5829 5828 5827 5826 5825 5825 5824 5824 5823 5823 5822 5822 5822
5865 5865 5866 5866 5866 5867 5867 5867 5867 5867 5867 5867 5868 5868 5868 5868 5868 5868 5868 5868 5868 5868 5867 5866 5865 5864 5863 5862 5860 5859 5858 5857 5857 5857 5856 5855 5855 5854 5854 5853 5853 5852 5852 5851 5851 5850 5850 5848 5847 5846 5845 5843 5842 5841 5841 5841 5840 5840 5839 5838 5837 5836 5835 5834 5833 5832 5832 5831 5830 5830 5829 5828 5828 5827 5826 5825 5824 5823 5823 5823 5822 5821 5821 5820 5820
5863 5864 5864 5865 5865 5866 5866 5866 5866 5866 5866 5866 5867 5867 5867 5867 5867 5867 5867 5867 5867 5867 5866 5865 5864 5863 5862 5861 5860 5858 5858 5857 5857 5856 5855 5854 5854 5853 5853 5853 5852 5851 5851 5851 5850 5850 5849 5848 5847 5845 5844 5843 5842 5841 5840 5839 5839 5838 5837 5837 5836 5835 5834 5833 5832 5831 5830 5830 5829 5828 5827 5827 5826 5826 5825 5824 5823 5822 5822 5821 5821 5820 5819 5819 5818
5862 5862 5863 5864 5864 5864 5864 5864 5864 5864 5865 5865 5865 5866 5866 5866 5866 5866 5866 5866 5866 5866 5865 5864 5863 5862 5861 5860 5859 5858 5857 5857 5856 5855 5855 5854 5853 5852 5852 5851 5851 5850 5850 5849 5849 5849 5848 5847 5845 5844 5843 5842 5841 5840 5839 5838 5837 5836 5836 5835 5834 5833 5833 5832 5831 5830 5829 5828 5828 5827 5826 5825 5825 5824 5824 5823 5822 5821 5821 5820 5819 5818 5818 5817 5817
5860 5861 5862 5862 5863 5863 5863 5863 5863 5863 5864 5864 5864 5864 5864 5865 5865 5865 5865 5865 5865 5865 5864 5863 5862 5862 5861 5859 5858 5857 5857 5856 5855 5855 5854 5853 5852 5852 5851 5850 5850 5849 5849 5848 5848 5847 5846 5845 5844 5843 5842 5841 5840 5840 5839 5838 5836 5835 5834 5833 5832 5831 5831 5830 5829 5828 5827 5827 5826 5825 5824 5824 5823 5822 5821 5821 5820 5820 5819 5818 5817 5817 5816 5815 5815
5858 5859 5860 5860 5861 5861 5861 5861 5862 5862 5863 5863 5863 5863 5863 5863 5864 5864 5864 5864 5864 5863 5863 5862 5861 5861 5860 5859 5858 5857 5856 5855 5855 5854 5853 5852 5851 5851 5850 5849 5849 5848 5848 5847 5846 5845 5844 5844 5843 5842 5841 5840 5839 5838 5838 5837 5836 5834 5833 5832 5830 5829 5828 5828 5827 5826 5825 5825 5824 5823 5822 5822 5821 5820 5819 5819 5818 5818 5817 5817 5816 5815 5814 5814 5813
5857 5857 5858 5859 5859 5860 5860 5860 5860 5861 5861 5861 5861 5862 5862 5862 5862 5862 5862 5862 5862 5862 5862 5861 5860 5860 5859 5858 5857 5856 5856 5855 5854 5853 5852 5851 5851 5850 5849 5848 5848 5847 5846 5845 5845 5844 5843 5842 5842 5841 5840 5839 5838 5837 5836 5835 5834 5833 5832 5830 5829 5827 5826 5826 5825 5824 5823 5822 5822 5821 5821 5820 5819 5818 5817 5817 5816 5816 5815 5815 5814 5813 5813 5812 5812
5855 5856 5857 5857 5858 5858 5858 5859 5859 5859 5859 5859 5860 5860 5860 5860 5861 5861 5861 5861 5861 5861 5860 5860 5859 5859 5858 5857 5856 5856 5855 5854 5853 5852 5852 5851 5850 5849 5848 5847 5846 5846 5845 5844 5844 5843 5842 5841 5840 5839 5839 5838 5837 5836 5835 5834 5833 5832 5831 5829 5827 5826 5825 5824 5823 5822 5821 5820 5819 5819 5818 5818 5817 5816 5815 5814 5814 5814 5813 5813 5813 5812 5811 5811 5810
5854 5854 5855 5856 5856 5857 5857 5857 5857 5857 5858 5858 5858 5858 5859 5859 5859 5859 5859 5859 5859 5859 5859 5859 5858 5857 5857 5856 5856 5855 5854 5854 5853 5852 5851 5850 5849 5848 5847 5846 5845 5844 5844 5843 5842 5842 5841 5840 5839 5838 5837 5837 5836 5835 5834 5833 5832 5831 5830 5828 5826 5824 5823 5822 5821 5820 5819 5818 5817 5816 5816 5815 5815 5814 5813 5812 5812 5811 5811 5811 5811 5810 5810 5809 5808
5852 5852 5853 5854 5854 5855 5855 5855 5855 5855 5856 5856 5856 5856 5857 5857 5857 5858 5858 5858 5858 5858 5857 5857 5856 5856 5855 5855 5855 5854 5853 5852 5852 5851 5850 5849 5848 5846 5845 5845 5844 5843 5843 5842 5841 5840 5839 5838 5837 5836 5836 5835 5835 5834 5833 5832 5830 5830 5829 5827 5825 5823 5822 5820 5819 5819 5817 5816 5815 5814 5813 5813 5813 5812 5811 5810 5809 5809 5809 5809 5809 5808 5808 5807 5807
5849 5850 5851 5851 5852 5853 5853 5853 5853 5853 5854 5854 5854 5855 5856 5856 5856 5856 5856 5856 5856 5856 5855 5855 5855 5855 5854 5854 5853 5853 5852 5851 5850 5850 5849 5848 5847 5845 5844 5844 5843 5842 5841 5840 5839 5839 5838 5837 5836 5835 5835 5834 5833 5833 5832 5831 5829 5828 5827 5826 5824 5823 5821 5819 5818 5817 5816 5815 5813 5812 5811 5810 5810 5810 5809 5808 5807 5806 5806 5806 5807 5807 5806 5805 5805
5846 5847 5848 5849 5849 5850 5850 5851 5851 5852 5852 5853 5853 5854 5854 5854 5854 5854 5855 5855 5854 5854 5854 5854 5854 5854 5853 5853 5852 5851 5850 5850 5849 5848 5847 5846 5845 5844 5843 5842 5842 5841 5840 5839 5838 5837 5836 5835 5834 5834 5833 5832 5832 5831 5830 5829 5828 5826 5825 5824 5822 5821 5819 5817 5816 5815 5814 5813 5811 5810 5809 5808 5808 5807 5806 5806 5805 5804 5804 5804 5804 5804 5804 5804 5803
5844 5845 5845 5846 5846 5847 5848 5849 5850 5850 5851 5851 5852 5852 5852 5852 5853 5853 5853 5853 5853 5853 5853 5853 5853 5852 5852 5852 5851 5850 5849 5848 5848 5847 5846 5845 5844 5843 5842 5841 5840 5840 5839 5838 5837 5836 5835 5834 5833 5832 5831 5831 5830 5829 5828 5827 5826 5824 5823 5821 5820 5819 5817 5816 5814 5813 5811 5811 5810 5808 5806 5806 5805 5805 5804 5803 5803 5803 5802 5801 5801 5801 5802 5801 5801
5843 5843 5843 5844 5844 5845 5846 5847 5848 5849 5849 5850 5850 5850 5851 5851 5851 5851 5852 5852 5852 5852 5852 5852 5851 5851 5851 5850 5850 5849 5848 5847 5846 5845 5845 5844 5843 5842 5841 5840 5839 5838 5837 5836 5836 5835 5834 5833 5832 5831 5830 5829 5828 5827 5826 5825 5824 5822 5820 5819 5817 5816 5815 5813 5812 5811 5809 5808 5807 5806 5805 5803 5803 5802 5801 5801 5800 5800 5800 5799 5798 5798 5799 5799 5799
5842 5842 5842 5842 5842 5842 5843 5845 5846 5847 5848 5848 5849 5849 5849 5849 5850 5850 5850 5850 5850 5850 5851 5850 5850 5850 5849 5849 5848 5848 5847 5846 5845 5844 5843 5843 5842 5841 5840 5839 5838 5837 5836 5835 5834 5833 5832 5831 5830 5829 5828 5827 5826 5825 5824 5823 5821 5820 5818 5817 5815 5814 5813 5811 5810 5809 5807 5806 5805 5804 5803 5801 5800 5800 5799 5798 5798 5797 5798 5797 5796 5796 5796 5796 5796
5840 5841 5841 5840 5838 5839 5841 5843 5844 5845 5846 5847 5847 5848 5848 5848 5848 5848 5849 5849 5849 5849 5849 5849 5849 5848 5847 5847 5846 5846 5845 5845 5844 5843 5842 5841 5841 5840 5838 5837 5837 5836 5835 5834 5833 5832 5830 5829 5828 5828 5826 5825 5824 5823 5822 5821 5819 5818 5816 5814 5813 5812 5810 5809 5807 5806 5805 5804 5803 5802 5800 5799 5798 5797 5796 5796 5795 5795 5795 5795 5794 5793 5793 5793 5793
5836 5837 5839 5838 5836 5837 5839 5841 5843 5844 5845 5845 5846 5846 5846 5847 5847 5847 5847 5847 5848 5848 5848 5847 5847 5846 5846 5845 5845 5844 5844 5843 5843 5842 5841 5840 5839 5838 5837 5836 5835 5834 5833 5832 5831 5830 5829 5828 5827 5826 5824 5823 5822 5820 5819 5818 5817 5816 5814 5813 5811 5810 5808 5807 5805 5803 5802 5801 5800 5799 5798 5797 5796 5795 5794 5794 5793 5792 5792 5791 5791 5790 5790 5790 5790
5832 5833 5835 5836 5835 5836 5838 5839 5841 5842 5843 5844 5845 5845 5845 5846 5846 5846 5846 5846 5846 5846 5846 5845 5845 5844 5844 5844 5843 5843 5842 5842 5841 5840 5840 5839 5838 5837 5836 5835 5834 5833 5832 5831 5830 5828 5827 5826 5825 5824 5822 5821 5819 5818 5817 5816 5815 5814 5813 5811 5809 5807 5806 5805 5803 5801 5800 5799 5797 5796 5795 5794 5793 5792 5791 5791 5790 5790 5789 5789 5788 5788 5787 5787 5787
5829 5830 5831 5832 5833 5834 5836 5837 5839 5840 5841 5842 5843 5843 5844 5844 5844 5844 5844 5844 5844 5844 5844 5844 5843 5843 5843 5842 5842 5842 5841 5840 5839 5838 5838 5837 5836 5835 5834 5833 5832 5831 5830 5829 5827 5826 5825 5824 5822 5821 5820 5818 5817 5815 5815 5814 5813 5812 5811 5809 5807 5805 5803 5802 5801 5799 5798 5797 5796 5794 5793 5792 5791 5790 5789 5788 5787 5787 5786 5786 5786 5785 5784 5784 5784
5826 5828 5829 5830 5831 5833 5834 5836 5837 5838 5840 5841 5841 5842 5842 5843 5843 5843 5843 5843 5843 5842 5842 5842 5842 5842 5841 5841 5841 5840 5839 5838 5838 5837 5836 5835 5834 5833 5832 5831 5830 5829 5827 5826 5825 5824 5822 5821 5820 5818 5817 5816 5814 5813 5812 5811 5810 5809 5808 5807 5806 5803 5801 5800 5799 5797 5796 5795 5793 5792 5791 5790 5789 5788 5787 5785 5784 5783 5782 5783 5783 5783 5782 5781 5780
5824 5826 5828 5829 5830 5831 5833 5834 5836 5837 5838 5839 5839 5840 5840 5841 5841 5841 5841 5841 5841 5841 5841 5840 5840 5840 5840 5839 5839 5838 5838 5837 5836 5835 5834 5833 5832 5831 5830 5829 5828 5826 5825 5824 5823 5821 5820 5819 5817 5816 5815 5814 5812 5810 5809 5809 5808 5806 5806 5804 5803 5802 5799 5798 5797 5795 5793 5792 5791 5789 5788 5787 5786 5785 5784 5783 5782 5780 5779 5779 5779 5779 5779 5778 5777
5822 5825 5827 5828 5830 5831 5832 5833 5835 5836 5837 5837 5838 5838 5839 5839 5839 5839 5839 5839 5839 5839 5839 5839 5839 5838 5838 5838 5837 5836 5835 5835 5834 5833 5832 5832 5830 5829 5828 5827 5825 5824 5823 5822 5820 5819 5818 5817 5815 5814 5812 5811 5810 5808 5806 5806 5805 5804 5803 5801 5801 5800 5798 5796 5796 5794 5791 5789 5788 5787 5786 5784 5783 5782 5781 5780 5779 5778 5777 5776 5776 5775 5775 5775 5774
5822 5824 5826 5827 5829 5830 5831 5832 5833 5835 5835 5836 5836 5836 5836 5837 5837 5837 5837 5837 5837 5837 5837 5837 5836 5836 5836 5835 5835 5834 5833 5833 5832 5831 5830 5829 5828 5827 5826 5824 5823 5822 5820 5819 5818 5816 5815 5814 5813 5812 5810 5809 5808 5806 5804 5803 5802 5801 5800 5799 5798 5797 5796 5795 5794 5793 5791 5788 5786 5785 5783 5782 5781 5780 5778 5777 5776 5775 5774 5774 5773 5772 5771 5771 5771
5822 5824 5825 5827 5828 5829 5830 5831 5832 5833 5834 5834 5834 5834 5835 5835 5835 5835 5835 5835 5835 5835 5834 5834 5834 5833 5833 5832 5832 5831 5831 5830 5829 5828 5827 5826 5825 5824 5823 5822 5821 5819 5818 5816 5815 5814 5812 5811 5810 5809 5807 5806 5805 5804 5802 5801 5799 5797 5796 5795 5794 5793 5793 5792 5791 5790 5789 5787 5784 5782 5781 5779 5778 5777 5775 5774 5773 5772 5771 5770 5770 5769 5768 5768 5768
5822 5823 5824 5825 5826 5827 5828 5830 5831 5831 5832 5832 5832 5833 5833 5833 5833 5833 5833 5833 5833 5832 5832 5832 5831 5831 5830 5830 5829 5828 5828 5827 5826 5825 5825 5824 5823 5822 5821 5819 5818 5817 5815 5814 5813 5811 5810 5808 5807 5806 5804 5803 5802 5800 5799 5798 5797 5795 5793 5792 5791 5790 5789 5788 5788 5787 5787 5786 5784 5781 5779 5777 5776 5774 5773 5771 5770 5770 5769 5767 5766 5766 5765 5764 5764
5821 5823 5823 5824 5825 5825 5826 5828 5829 5829 5830 5830 5830 5831 5831 5831 5831 5831 5831 5831 5831 5830 5830 5829 5829 5828 5828 5827 5827 5826 5825 5824 5824 5823 5822 5821 5820 5819 5818 5816 5815 5814 5813 5811 5810 5809 5807 5806 5804 5803 5801 5800 5798 5797 5796 5794 5793 5792 5791 5789 5788 5787 5785 5784 5784 5783 5783 5783 5782 5779 5777 5776 5774 5771 5770 5769 5767 5767 5766 5764 5763 5762 5762 5761 5760
5821 5822 5823 5824 5824 5824 5825 5826 5827 5827 5828 5828 5828 5829 5829 5829 5829 5829 5829 5829 5828 5828 5828 5827 5827 5826 5826 5825 5824 5824 5823 5822 5821 5820 5819 5818 5817 5816 5815 5814 5812 5811 5810 5808 5807 5805 5804 5802 5801 5800 5798 5797 5795 5794 5792 5791 5790 5788 5787 5786 5785 5783 5782 5781 5779 5779 5778 5778 5778 5777 5774 5773 5772 5770 5767 5766 5765 5764 5763 5761 5760 5759 5758 5758 5757
5820 5821 5821 5822 5823 5823 5824 5824 5825 5826 5826 5826 5826 5827 5827 5827 5827 5827 5827 5827 5826 5826 5825 5825 5824 5824 5823 5823 5822 5821 5820 5820 5819 5818 5817 5816 5815 5814 5812 5811 5810 5808 5807 5805 5804 5802 5801 5799 5798 5796 5795 5793 5792 5790 5789 5787 5786 5785 5783 5782 5781 5780 5778 5777 5776 5775 5774 5773 5773 5773 5771 5769 5769 5767 5765 5764 5762 5761 5760 5759 5757 5756 5755 5754 5754